Flag for United Arab Emirates Weather past 2 weeks in Sharjah, Sharjah, United Arab Emirates

Now
82 °F

Clear.


Feels Like: 87 °F
Forecast: 76 / 94 °F
Wind: 2 mph from Northwest

Location: Sharjah International Airport

Current Time: Apr 27, 2015 at 10:05:13 PM

Latest Report: Apr 27, 2015 at 9:00 PM


Visibility: 10 mi

Pressure: 29.83 "Hg

Humidity: 70%

Dew point: 72 °F

Location of SharjahLocation

Historic Weather in Sharjah — Graph

°F

Sharjah temperature yesterday

Maximum temperature yesterday: 93 °F (at 12:00 PM)
Minimum temperature yesterday: 73 °F (at 6:00 AM)
Average temperature yesterday: 82 °F

Past Weeks' High & Low Weather Summary

 TemperatureHumidityPressure
High104 °F (Apr 24, 12:00 PM)83% (Apr 26, 6:00 AM)30.07 "Hg (Apr 26, 6:00 AM)
Low64 °F (Apr 21, 6:00 AM)9% (Apr 24, 12:00 PM)29.74 "Hg (Apr 18, 6:00 PM)
Average83 °F45%29.85 "Hg
* Reported Apr 12 9:00 PM — Apr 27 9:00 PM, Sharjah, Weather by CustomWeather, © 2015

Note: Actual official high and low records may vary slightly from our data, if they occured in-between our weather recording intervals... More about our weather records

Advertising

Sharjah weather history for previous 24 hours

 ConditionsComfort  
Time TempWeatherWind HumidityBarometerVisibility
9:00 PM
Mon, Apr 27
82 °FClear.2 mph70%29.83 "Hg10 mi
8:00 PM81 °FClear.3 mph74%29.83 "Hg10 mi
7:00 PM84 °FClear.8 mph66%29.80 "Hg10 mi
6:00 PM88 °FSunny.9 mph52%29.80 "Hg10 mi
5:00 PM88 °FSunny.12 mph52%29.80 "Hg10 mi
4:00 PM91 °FSunny.12 mph44%29.80 "Hg10 mi
3:00 PM91 °FSunny.10 mph49%29.80 "Hg10 mi
2:00 PM91 °FSunny.10 mph52%29.83 "Hg10 mi
1:00 PM90 °FSunny.8 mph55%29.86 "Hg10 mi
12:00 PM90 °FSunny.8 mph52%29.86 "Hg10 mi
11:00 AM90 °FSunny.2 mph43%29.89 "Hg10 mi
10:00 AM84 °FSunny.2 mph55%29.89 "Hg10 mi
9:00 AM81 °FSunny.2 mph66%29.89 "Hg10 mi
8:00 AM77 °FSunny.6 mph74%29.86 "Hg10 mi
7:00 AM73 °FSunny.6 mph78%29.83 "Hg10 mi
6:00 AM73 °FSunny.5 mph78%29.83 "Hg10 mi
5:00 AM73 °FClear.6 mph78%29.80 "Hg10 mi
4:00 AM75 °FClear.7 mph78%29.80 "Hg10 mi
3:00 AM75 °FClear.7 mph78%29.80 "Hg10 mi
2:00 AM75 °FClear.8 mph78%29.80 "Hg10 mi
1:00 AM77 °FClear.9 mph74%29.80 "Hg10 mi
12:00 AM79 °FClear.8 mph70%29.83 "Hg10 mi
10:00 PM
Sun, Apr 26
81 °FClear.3 mph66%29.83 "Hg10 mi
Weather by CustomWeather, © 2015

See weather overviewHow to use our weather pages